Location: Beang
(6.6177°N, 10.9863°W)
Time: 14:47:03
(UTC+00:00)

Cosmos 1633 Rocket - Pass Details

Date: 07 June 2020
Orbit: 608 x 623 km, 82.5° (Epoch: 07 July)

Event Time Altitude Azimuth Distance (km) Brightness Sun altitude
Exits shadow 05:45:19 - 200° (SSW) 2,443 5.7 -10.5°
Reaches altitude 10° 05:46:33 10° 204° (SSW) 1,964 5.2 -10.3°
Maximum altitude 05:50:38 41° 274° (W) 893 3.5 -9.3°
Drops below altitude 10° 05:54:43 10° 345° (NNW) 1,954 5.7 -8.4°
Sets 05:57:01 0° 352° (N) 2,855 6.7 -7.9°
